timestamp,wind_dir_avg,wind_spd_max_dir,wind_spd_avg,wind_spd_gust,battery_voltage,lat,long
2017-11-22 00:00:00+00:00,319.0,321.0,10.21,11.8,,47.59359,-54.27349
2017-11-22 00:10:00+00:00,315.0,326.0,11.91,15.33,,47.59359,-54.27349
2017-11-22 00:20:00+00:00,308.0,306.0,10.62,14.09,,47.59359,-54.27349
2017-11-22 00:30:00+00:00,306.0,308.0,11.08,13.42,,47.59359,-54.27349
2017-11-22 00:40:00+00:00,313.0,311.0,10.96,12.76,,47.59359,-54.27349
2017-11-22 00:50:00+00:00,319.0,328.0,11.55,13.85,,47.59359,-54.27349
2017-11-22 01:00:00+00:00,316.0,322.0,9.66,12.43,,47.59359,-54.27349
2017-11-22 01:10:00+00:00,310.0,316.0,10.34,12.09,,47.59359,-54.27349
2017-11-22 01:20:00+00:00,303.0,304.0,8.77,10.64,,47.59359,-54.27349
2017-11-22 01:30:00+00:00,305.0,310.0,8.67,10.91,,47.59359,-54.27349
2017-11-22 01:40:00+00:00,291.0,292.0,9.65,11.3,,47.59359,-54.27349
2017-11-22 01:50:00+00:00,292.0,288.0,9.83,11.97,,47.59359,-54.27349
2017-11-22 02:00:00+00:00,296.0,299.0,10.31,12.46,,47.59359,-54.27349
2017-11-22 02:10:00+00:00,297.0,296.0,10.35,14.41,,47.59359,-54.27349
2017-11-22 02:20:00+00:00,300.0,300.0,12.04,14.53,,47.59359,-54.27349
2017-11-22 02:30:00+00:00,310.0,311.0,12.9,15.26,,47.59359,-54.27349
2017-11-22 02:40:00+00:00,295.0,299.0,10.85,13.86,,47.59359,-54.27349
2017-11-22 02:50:00+00:00,306.0,303.0,9.3,10.81,,47.59359,-54.27349
2017-11-22 03:00:00+00:00,314.0,322.0,8.53,11.04,,47.59359,-54.27349
2017-11-22 03:10:00+00:00,301.0,305.0,6.89,8.1,,47.59359,-54.27349
2017-11-22 03:20:00+00:00,315.0,312.0,7.18,9.2,,47.59359,-54.27349
2017-11-22 03:30:00+00:00,318.0,320.0,6.89,8.8,,47.59359,-54.27349
2017-11-22 03:40:00+00:00,307.0,298.0,7.42,9.12,,47.59359,-54.27349
2017-11-22 03:50:00+00:00,315.0,315.0,7.67,9.95,,47.59359,-54.27349
2017-11-22 04:00:00+00:00,315.0,309.0,9.68,11.1,,47.59359,-54.27349
2017-11-22 04:10:00+00:00,305.0,312.0,9.4,11.67,,47.59359,-54.27349
2017-11-22 04:20:00+00:00,299.0,296.0,8.37,10.06,,47.59359,-54.27349
2017-11-22 04:30:00+00:00,300.0,300.0,7.62,8.66,,47.59359,-54.27349
2017-11-22 04:40:00+00:00,305.0,304.0,7.35,9.49,,47.59359,-54.27349
2017-11-22 04:50:00+00:00,298.0,290.0,8.46,9.77,,47.59359,-54.27349
2017-11-22 05:00:00+00:00,291.0,282.0,8.3,10.12,,47.59359,-54.27349
2017-11-22 05:10:00+00:00,296.0,293.0,7.19,9.58,,47.59359,-54.27349
2017-11-22 05:20:00+00:00,294.0,285.0,7.83,9.2,,47.59359,-54.27349
2017-11-22 05:30:00+00:00,293.0,291.0,6.67,8.19,,47.59359,-54.27349
2017-11-22 05:40:00+00:00,295.0,292.0,8.17,11.04,,47.59359,-54.27349
2017-11-22 05:50:00+00:00,286.0,294.0,7.76,9.25,,47.59359,-54.27349
2017-11-22 06:00:00+00:00,295.0,298.0,8.48,9.96,,47.59359,-54.27349
2017-11-22 06:10:00+00:00,296.0,304.0,7.31,8.48,,47.59359,-54.27349
2017-11-22 06:20:00+00:00,301.0,309.0,6.84,8.25,,47.59359,-54.27349
2017-11-22 06:30:00+00:00,300.0,300.0,5.95,7.13,,47.59359,-54.27349
2017-11-22 06:40:00+00:00,287.0,294.0,8.71,10.7,,47.59359,-54.27349
2017-11-22 06:50:00+00:00,300.0,289.0,7.13,8.61,,47.59359,-54.27349
2017-11-22 07:00:00+00:00,307.0,302.0,6.7,8.39,,47.59359,-54.27349
2017-11-22 07:10:00+00:00,308.0,306.0,7.45,8.56,,47.59359,-54.27349
2017-11-22 07:20:00+00:00,296.0,302.0,7.66,9.6,,47.59359,-54.27349
2017-11-22 07:30:00+00:00,302.0,295.0,7.64,8.84,,47.59359,-54.27349
2017-11-22 07:40:00+00:00,291.0,298.0,7.91,9.15,,47.59359,-54.27349
2017-11-22 07:50:00+00:00,302.0,296.0,8.18,10.02,,47.59359,-54.27349
2017-11-22 08:00:00+00:00,303.0,301.0,8.05,10.05,,47.59359,-54.27349
2017-11-22 08:10:00+00:00,307.0,310.0,8.53,9.83,,47.59359,-54.27349
2017-11-22 08:20:00+00:00,309.0,314.0,8.89,11.13,,47.59359,-54.27349
2017-11-22 08:30:00+00:00,311.0,309.0,8.71,10.09,,47.59359,-54.27349
2017-11-22 08:40:00+00:00,311.0,314.0,8.45,9.87,,47.59359,-54.27349
2017-11-22 08:50:00+00:00,306.0,305.0,9.89,12.18,,47.59359,-54.27349
2017-11-22 09:00:00+00:00,300.0,296.0,10.23,11.85,,47.59359,-54.27349
2017-11-22 09:10:00+00:00,305.0,301.0,10.51,12.61,,47.59359,-54.27349
2017-11-22 09:20:00+00:00,308.0,308.0,9.11,11.26,,47.59359,-54.27349
2017-11-22 09:30:00+00:00,303.0,304.0,8.91,10.94,,47.59359,-54.27349
2017-11-22 09:40:00+00:00,303.0,306.0,7.15,8.36,,47.59359,-54.27349
2017-11-22 09:50:00+00:00,315.0,305.0,5.91,7.7,,47.59359,-54.27349
2017-11-22 10:00:00+00:00,308.0,300.0,6.39,7.86,,47.59359,-54.27349
2017-11-22 10:10:00+00:00,316.0,333.0,5.77,7.38,,47.59359,-54.27349
2017-11-22 10:20:00+00:00,322.0,329.0,8.15,11.17,,47.59359,-54.27349
2017-11-22 10:30:00+00:00,319.0,326.0,8.08,9.6,,47.59359,-54.27349
2017-11-22 10:40:00+00:00,306.0,307.0,9.45,10.71,,47.59359,-54.27349
2017-11-22 10:50:00+00:00,317.0,308.0,7.52,9.03,,47.59359,-54.27349
2017-11-22 11:00:00+00:00,314.0,316.0,8.57,10.22,,47.59359,-54.27349
2017-11-22 11:10:00+00:00,306.0,308.0,9.26,11.16,,47.59359,-54.27349
2017-11-22 11:20:00+00:00,305.0,307.0,9.46,10.64,,47.59359,-54.27349
2017-11-22 11:30:00+00:00,304.0,307.0,9.15,10.49,,47.59359,-54.27349
2017-11-22 11:40:00+00:00,313.0,320.0,8.46,9.87,,47.59359,-54.27349
2017-11-22 11:50:00+00:00,310.0,310.0,9.13,11.58,,47.59359,-54.27349
2017-11-22 12:00:00+00:00,310.0,313.0,9.63,11.72,,47.59359,-54.27349
2017-11-22 12:10:00+00:00,302.0,308.0,9.76,11.94,,47.59359,-54.27349
2017-11-22 12:20:00+00:00,307.0,308.0,9.07,10.31,,47.59359,-54.27349
2017-11-22 12:30:00+00:00,311.0,310.0,11.34,13.08,,47.59359,-54.27349
2017-11-22 12:40:00+00:00,316.0,315.0,10.77,12.23,,47.59359,-54.27349
2017-11-22 12:50:00+00:00,316.0,316.0,10.88,12.09,,47.59359,-54.27349
2017-11-22 13:00:00+00:00,317.0,324.0,10.74,12.34,,47.59359,-54.27349
2017-11-22 13:10:00+00:00,316.0,311.0,11.06,12.85,,47.59359,-54.27349
2017-11-22 13:20:00+00:00,320.0,316.0,11.71,13.77,,47.59359,-54.27349
2017-11-22 13:30:00+00:00,313.0,311.0,9.43,10.81,,47.59359,-54.27349
2017-11-22 13:40:00+00:00,316.0,309.0,9.2,11.83,,47.59359,-54.27349
2017-11-22 13:50:00+00:00,328.0,328.0,7.98,9.46,,47.59359,-54.27349
2017-11-22 14:00:00+00:00,327.0,326.0,10.75,11.83,,47.59359,-54.27349
2017-11-22 14:10:00+00:00,324.0,324.0,9.99,11.98,,47.59359,-54.27349
2017-11-22 14:20:00+00:00,318.0,318.0,9.48,12.15,,47.59359,-54.27349
2017-11-22 14:30:00+00:00,318.0,320.0,10.02,11.59,,47.59359,-54.27349
2017-11-22 14:40:00+00:00,318.0,318.0,10.71,12.31,,47.59359,-54.27349
2017-11-22 14:50:00+00:00,321.0,321.0,9.97,12.46,,47.59359,-54.27349
2017-11-22 15:00:00+00:00,316.0,310.0,8.73,9.9,,47.59359,-54.27349
2017-11-22 15:10:00+00:00,320.0,313.0,8.81,10.39,,47.59359,-54.27349
2017-11-22 15:20:00+00:00,334.0,333.0,8.59,9.74,,47.59359,-54.27349
2017-11-22 15:30:00+00:00,338.0,340.0,8.24,9.34,,47.59359,-54.27349
2017-11-22 15:40:00+00:00,338.0,339.0,9.27,10.46,,47.59359,-54.27349
2017-11-22 15:50:00+00:00,333.0,328.0,9.28,10.68,,47.59359,-54.27349
2017-11-22 16:00:00+00:00,340.0,348.0,7.02,8.05,,47.59359,-54.27349
2017-11-22 16:10:00+00:00,322.0,324.0,7.96,9.04,,47.59359,-54.27349
2017-11-22 16:20:00+00:00,331.0,319.0,4.38,5.64,,47.59359,-54.27349
2017-11-22 16:30:00+00:00,330.0,328.0,5.34,6.23,,47.59359,-54.27349
2017-11-22 16:40:00+00:00,339.0,342.0,6.37,7.94,,47.59359,-54.27349
2017-11-22 16:50:00+00:00,355.0,356.0,5.45,6.09,,47.59359,-54.27349
2017-11-22 17:00:00+00:00,323.0,324.0,4.18,4.69,,47.59359,-54.27349
2017-11-22 17:10:00+00:00,326.0,322.0,3.67,4.43,,47.59359,-54.27349
2017-11-22 17:20:00+00:00,315.0,311.0,5.15,5.9,,47.59359,-54.27349
2017-11-22 17:30:00+00:00,315.0,314.0,4.79,5.27,,47.59359,-54.27349
2017-11-22 17:40:00+00:00,316.0,314.0,5.26,6.0,,47.59359,-54.27349
2017-11-22 17:50:00+00:00,322.0,325.0,4.4,4.8,,47.59359,-54.27349
2017-11-22 18:00:00+00:00,332.0,324.0,3.98,4.45,,47.59359,-54.27349
2017-11-22 18:10:00+00:00,325.0,315.0,4.55,5.6,,47.59359,-54.27349
2017-11-22 18:20:00+00:00,327.0,329.0,3.88,4.35,,47.59359,-54.27349
2017-11-22 18:30:00+00:00,324.0,321.0,3.2,3.45,,47.59359,-54.27349
2017-11-22 18:40:00+00:00,340.0,330.0,2.92,3.64,,47.59359,-54.27349
2017-11-22 18:50:00+00:00,333.0,331.0,2.85,3.15,,47.59359,-54.27349
2017-11-22 19:00:00+00:00,350.0,354.0,2.81,3.24,,47.59359,-54.27349
2017-11-22 19:10:00+00:00,348.0,347.0,1.4,1.64,,47.59359,-54.27349
2017-11-22 19:20:00+00:00,310.0,311.0,2.84,3.3,,47.59359,-54.27349
2017-11-22 19:30:00+00:00,325.0,324.0,1.8,2.01,,47.59359,-54.27349
2017-11-22 19:40:00+00:00,344.0,347.0,1.52,1.67,,47.59359,-54.27349
2017-11-22 19:50:00+00:00,22.0,23.0,2.52,2.93,,47.59359,-54.27349
2017-11-22 20:00:00+00:00,48.0,55.0,3.98,4.71,,47.59359,-54.27349
2017-11-22 20:10:00+00:00,48.0,49.0,4.08,4.62,,47.59359,-54.27349
2017-11-22 20:20:00+00:00,27.0,28.0,2.75,3.29,,47.59359,-54.27349
2017-11-22 20:30:00+00:00,35.0,30.0,1.95,2.62,,47.59359,-54.27349
2017-11-22 20:40:00+00:00,19.0,13.0,1.83,2.05,,47.59359,-54.27349
2017-11-22 20:50:00+00:00,1.0,359.0,1.45,1.59,,47.59359,-54.27349
2017-11-22 21:00:00+00:00,312.0,309.0,1.06,1.22,,47.59359,-54.27349
2017-11-22 21:10:00+00:00,305.0,316.0,1.4,1.63,,47.59359,-54.27349
2017-11-22 21:20:00+00:00,324.0,320.0,1.94,2.12,,47.59359,-54.27349
2017-11-22 21:30:00+00:00,2.0,7.0,1.76,2.07,,47.59359,-54.27349
2017-11-22 21:40:00+00:00,5.0,1.0,1.59,1.79,,47.59359,-54.27349
2017-11-22 21:50:00+00:00,10.0,14.0,1.99,2.2,,47.59359,-54.27349
2017-11-22 22:00:00+00:00,3.0,3.0,1.98,2.27,,47.59359,-54.27349
2017-11-22 22:10:00+00:00,33.0,24.0,2.07,2.25,,47.59359,-54.27349
2017-11-22 22:20:00+00:00,42.0,44.0,1.91,2.04,,47.59359,-54.27349
2017-11-22 22:30:00+00:00,36.0,41.0,1.25,1.62,,47.59359,-54.27349
2017-11-22 22:40:00+00:00,143.0,156.0,0.38,0.62,,47.59359,-54.27349
2017-11-22 22:50:00+00:00,323.0,322.0,1.06,1.32,,47.59359,-54.27349
2017-11-22 23:00:00+00:00,304.0,310.0,0.52,0.7,,47.59359,-54.27349
2017-11-22 23:10:00+00:00,284.0,290.0,0.96,1.26,,47.59359,-54.27349
2017-11-22 23:20:00+00:00,307.0,302.0,1.44,1.69,,47.59359,-54.27349
2017-11-22 23:30:00+00:00,304.0,314.0,1.82,2.0,,47.59359,-54.27349
2017-11-22 23:40:00+00:00,328.0,325.0,1.02,1.3,,47.59359,-54.27349
2017-11-22 23:50:00+00:00,315.0,315.0,1.49,1.75,,47.59359,-54.27349
